Time,TemperatureF,DewpointF,PressureIn,WindDirection,WindDirectionDegrees,WindSpeedMPH,WindSpeedGustMPH,Humidity,HourlyPrecipIn,Conditions,Clouds,dailyrainin,SoftwareType,DateUTC
2013-03-09 11:05:00,35.3,33.2,29.82,SE,145,8.0,8.0,92,0.00,,,0.37,Wunderground v.1.15,2013-03-09 17:05:00,
2013-03-09 11:10:00,35.3,33.2,29.81,SSE,149,2.0,10.0,92,0.00,,,0.37,Wunderground v.1.15,2013-03-09 17:10:00,
2013-03-09 11:15:00,35.4,33.3,29.82,SSE,157,5.0,5.0,92,0.00,,,0.37,Wunderground v.1.15,2013-03-09 17:15:00,
2013-03-09 11:21:00,35.4,33.3,29.81,SSE,148,2.0,7.0,92,0.00,,,0.37,Wunderground v.1.15,2013-03-09 17:21:00,
2013-03-09 11:26:00,35.5,33.4,29.81,SE,145,3.0,8.0,92,0.00,,,0.37,Wunderground v.1.15,2013-03-09 17:26:00,
2013-03-09 11:31:00,35.5,33.4,29.81,SSE,156,4.0,8.0,92,0.00,,,0.37,Wunderground v.1.15,2013-03-09 17:31:00,
2013-03-09 11:36:00,35.6,33.5,29.80,SSE,154,0.0,3.0,92,0.00,,,0.37,Wunderground v.1.15,2013-03-09 17:36:00,
2013-03-09 11:41:00,35.7,33.6,29.80,SE,132,3.0,9.0,92,0.00,,,0.37,Wunderground v.1.15,2013-03-09 17:41:00,
2013-03-09 11:46:00,35.7,33.6,29.80,SSE,159,3.0,3.0,92,0.00,,,0.37,Wunderground v.1.15,2013-03-09 17:46:00,
2013-03-09 11:51:00,35.7,33.6,29.80,SE,142,0.0,5.0,92,0.00,,,0.37,Wunderground v.1.15,2013-03-09 17:51:00,
2013-03-09 16:13:00,35.4,33.3,29.70,SE,144,0.0,0.0,92,0.00,,,0.43,Wunderground v.1.15,2013-03-09 22:13:00,
2013-03-09 16:18:00,35.2,33.1,29.70,SE,143,0.0,2.0,92,0.00,,,0.43,Wunderground v.1.15,2013-03-09 22:18:00,
2013-03-09 16:23:00,35.3,33.2,29.71,SE,142,2.0,4.0,92,0.00,,,0.43,Wunderground v.1.15,2013-03-09 22:23:00,
2013-03-09 16:28:00,35.6,33.5,29.71,SE,142,2.0,4.0,92,0.00,,,0.43,Wunderground v.1.15,2013-03-09 22:28:00,
2013-03-09 16:33:00,35.7,33.6,29.71,SE,142,0.0,1.0,92,0.00,,,0.44,Wunderground v.1.15,2013-03-09 22:33:00,
2013-03-09 16:38:00,35.6,33.5,29.71,SE,142,0.0,3.0,92,0.00,,,0.44,Wunderground v.1.15,2013-03-09 22:38:00,
2013-03-09 16:43:00,35.6,33.5,29.71,SE,142,0.0,0.0,92,0.00,,,0.44,Wunderground v.1.15,2013-03-09 22:43:00,
2013-03-09 16:48:00,35.6,33.5,29.71,SE,142,0.0,0.0,92,0.00,,,0.44,Wunderground v.1.15,2013-03-09 22:48:00,
2013-03-09 16:53:00,35.6,33.5,29.72,SE,142,0.0,0.0,92,0.00,,,0.44,Wunderground v.1.15,2013-03-09 22:53:00,
2013-03-09 16:58:00,35.6,33.5,29.72,SE,142,0.0,0.0,92,0.00,,,0.44,Wunderground v.1.15,2013-03-09 22:58:00,
2013-03-09 17:03:00,35.5,33.4,29.72,SE,142,0.0,0.0,92,0.00,,,0.44,Wunderground v.1.15,2013-03-09 23:03:00,
2013-03-09 17:08:00,35.5,33.4,29.73,SE,142,0.0,0.0,92,0.00,,,0.45,Wunderground v.1.15,2013-03-09 23:08:00,
2013-03-09 17:13:00,35.5,33.4,29.72,SE,142,0.0,0.0,92,0.00,,,0.45,Wunderground v.1.15,2013-03-09 23:13:00,
2013-03-09 17:18:00,35.5,33.4,29.73,SE,142,0.0,0.0,92,0.00,,,0.45,Wunderground v.1.15,2013-03-09 23:18:00,
2013-03-09 17:23:00,35.5,33.4,29.73,SE,142,0.0,0.0,92,0.00,,,0.45,Wunderground v.1.15,2013-03-09 23:23:00,
2013-03-09 17:28:00,35.4,33.3,29.72,SE,142,0.0,0.0,92,0.00,,,0.45,Wunderground v.1.15,2013-03-09 23:28:00,
2013-03-09 17:33:00,35.4,33.3,29.72,SE,142,0.0,0.0,92,0.00,,,0.45,Wunderground v.1.15,2013-03-09 23:33:00,
2013-03-09 17:38:00,35.3,33.2,29.72,SE,142,0.0,0.0,92,0.00,,,0.45,Wunderground v.1.15,2013-03-09 23:38:00,
2013-03-09 17:43:00,35.3,33.2,29.72,SE,142,0.0,0.0,92,0.00,,,0.45,Wunderground v.1.15,2013-03-09 23:43:00,
2013-03-09 17:48:00,35.2,33.1,29.72,SE,142,0.0,0.0,92,0.00,,,0.45,Wunderground v.1.15,2013-03-09 23:48:00,
2013-03-09 17:53:00,35.1,33.0,29.72,SE,142,0.0,0.0,92,0.00,,,0.45,Wunderground v.1.15,2013-03-09 23:53:00,
2013-03-09 17:58:00,35.0,32.9,29.72,SE,142,0.0,0.0,92,0.00,,,0.45,Wunderground v.1.15,2013-03-09 23:58:00,
2013-03-09 18:03:00,34.9,32.8,29.72,SE,142,0.0,0.0,92,0.00,,,0.45,Wunderground v.1.15,2013-03-10 00:03:00,
2013-03-09 18:08:00,34.8,32.7,29.73,SE,142,0.0,0.0,92,0.00,,,0.45,Wunderground v.1.15,2013-03-10 00:08:00,
2013-03-09 18:13:00,34.7,32.6,29.72,SE,142,0.0,0.0,92,0.00,,,0.45,Wunderground v.1.15,2013-03-10 00:13:00,
2013-03-09 18:18:00,34.6,32.5,29.73,SE,142,0.0,0.0,92,0.00,,,0.46,Wunderground v.1.15,2013-03-10 00:18:00,
2013-03-09 18:23:00,34.6,32.5,29.73,SE,142,0.0,0.0,92,0.00,,,0.46,Wunderground v.1.15,2013-03-10 00:23:00,
2013-03-09 18:28:00,34.5,32.4,29.73,SE,142,0.0,0.0,92,0.00,,,0.46,Wunderground v.1.15,2013-03-10 00:28:00,
2013-03-09 18:33:00,34.4,32.3,29.73,SE,142,0.0,0.0,92,0.00,,,0.46,Wunderground v.1.15,2013-03-10 00:33:00,
2013-03-09 18:38:00,34.4,32.3,29.73,SE,142,0.0,0.0,92,0.00,,,0.46,Wunderground v.1.15,2013-03-10 00:38:00,
2013-03-09 18:43:00,34.4,32.3,29.73,SE,142,0.0,0.0,92,0.00,,,0.47,Wunderground v.1.15,2013-03-10 00:43:00,
2013-03-09 18:48:00,34.4,32.3,29.73,SE,142,0.0,0.0,92,0.00,,,0.47,Wunderground v.1.15,2013-03-10 00:48:00,
2013-03-09 18:53:00,34.4,32.3,29.73,SE,142,0.0,0.0,92,0.00,,,0.47,Wunderground v.1.15,2013-03-10 00:53:00,
2013-03-09 18:59:00,34.4,32.3,29.74,SE,142,0.0,0.0,92,0.00,,,0.47,Wunderground v.1.15,2013-03-10 00:59:00,
2013-03-09 19:04:00,34.4,32.3,29.74,SE,142,0.0,0.0,92,0.00,,,0.47,Wunderground v.1.15,2013-03-10 01:04:00,
2013-03-09 19:09:00,34.4,32.3,29.74,SE,142,0.0,0.0,92,0.00,,,0.47,Wunderground v.1.15,2013-03-10 01:09:00,
2013-03-09 19:14:00,34.4,32.3,29.74,SE,142,0.0,0.0,92,0.00,,,0.47,Wunderground v.1.15,2013-03-10 01:14:00,
2013-03-09 19:19:00,34.4,32.3,29.74,SE,142,0.0,0.0,92,0.00,,,0.47,Wunderground v.1.15,2013-03-10 01:19:00,
2013-03-09 19:24:00,34.4,32.3,29.75,SE,142,0.0,0.0,92,0.00,,,0.47,Wunderground v.1.15,2013-03-10 01:24:00,
2013-03-09 19:29:00,34.3,32.2,29.74,SE,142,0.0,0.0,92,0.00,,,0.47,Wunderground v.1.15,2013-03-10 01:29:00,
2013-03-09 19:34:00,34.3,32.2,29.75,SE,142,0.0,0.0,92,0.00,,,0.47,Wunderground v.1.15,2013-03-10 01:34:00,